Location: San Antonio de Areco
(34.2500°S, 59.4670°W)
Time: 00:01:19
(UTC-03:00)

ISS - Visible Passes

Search period start: 24 May 2015 00:00
Search period end: 03 June 2015 00:00
Orbit: 399 x 404 km, 51.6° (Epoch: 23 May)

Date Brightness Start Highest point End Pass type
(mag) Time Alt. Az. Time Alt. Az. Time Alt. Az.
24 May -2.4 19:20:30 10° SSW 19:23:10 33° SSE 19:23:10 33° SSE visible
25 May -1.7 18:27:42 10° SSW 18:30:11 20° SSE 18:32:42 10° E visible
25 May -1.2 20:03:38 10° WSW 20:05:37 27° W 20:05:37 27° W visible
26 May -3.4 19:10:14 10° SW 19:13:32 87° NW 19:15:48 19° NE visible
27 May -0.2 19:54:33 10° W 19:56:25 14° NW 19:58:09 10° NNW visible
28 May -1.2 19:00:19 10° WSW 19:03:16 30° NW 19:06:10 10° NNE visible
30 May 0.3 18:51:32 10° WNW 18:52:50 12° NW 18:53:57 10° NNW visible
